TimeEDT,TemperatureF,Dew PointF,Humidity,Sea Level PressureIn,VisibilityMPH,Wind Direction,Wind SpeedMPH,Gust SpeedMPH,PrecipitationIn,Events,Conditions,WindDirDegrees,DateUTC
12:51 AM,75.2,73.4,94,29.96,9.0,South,4.6,-,N/A,,Mostly Cloudy,190,2013-08-02 04:51:00
12:53 AM,75.9,73.0,91,29.94,9.0,South,4.6,-,N/A,,Mostly Cloudy,190,2013-08-02 04:53:00
1:13 AM,75.2,73.4,94,29.95,8.0,South,8.1,-,N/A,,Mostly Cloudy,180,2013-08-02 05:13:00
1:53 AM,75.9,73.9,94,29.93,7.0,South,3.5,-,N/A,,Overcast,190,2013-08-02 05:53:00
2:15 AM,75.2,73.4,94,29.94,7.0,SSW,4.6,-,N/A,,Overcast,200,2013-08-02 06:15:00
2:53 AM,75.9,73.9,94,29.92,6.0,SSW,4.6,-,N/A,,Overcast,210,2013-08-02 06:53:00
3:53 AM,73.9,73.0,97,29.91,5.0,SW,4.6,-,N/A,,Partly Cloudy,220,2013-08-02 07:53:00
4:49 AM,75.2,73.4,94,29.92,5.0,SW,4.6,-,N/A,,Mostly Cloudy,230,2013-08-02 08:49:00
4:53 AM,75.0,73.9,96,29.91,5.0,SW,4.6,-,N/A,,Mostly Cloudy,230,2013-08-02 08:53:00
5:53 AM,75.9,73.9,94,29.92,6.0,SW,6.9,-,N/A,,Overcast,230,2013-08-02 09:53:00
6:39 AM,75.2,73.4,94,29.96,4.0,SSW,4.6,-,N/A,,Scattered Clouds,210,2013-08-02 10:39:00
6:53 AM,75.0,73.0,94,29.94,3.0,SW,3.5,-,N/A,,Clear,220,2013-08-02 10:53:00
7:23 AM,75.2,73.4,94,29.97,4.0,Calm,Calm,-,N/A,,Scattered Clouds,0,2013-08-02 11:23:00
7:37 AM,75.2,73.4,94,29.98,5.0,West,3.5,-,N/A,,Mostly Cloudy,260,2013-08-02 11:37:00
7:53 AM,75.9,73.9,94,29.97,5.0,WSW,4.6,-,N/A,,Mostly Cloudy,250,2013-08-02 11:53:00
8:08 AM,78.8,73.4,83,29.99,6.0,West,4.6,-,N/A,,Scattered Clouds,270,2013-08-02 12:08:00
8:19 AM,78.8,73.4,83,29.99,6.0,West,3.5,-,N/A,,Mostly Cloudy,280,2013-08-02 12:19:00
8:53 AM,78.1,73.0,84,29.97,7.0,Calm,Calm,-,N/A,,Mostly Cloudy,0,2013-08-02 12:53:00
9:00 AM,80.6,73.4,79,30.00,8.0,NNW,3.5,-,N/A,,Mostly Cloudy,330,2013-08-02 13:00:00
9:12 AM,80.6,73.4,79,30.01,9.0,NW,3.5,-,N/A,,Mostly Cloudy,310,2013-08-02 13:12:00
9:53 AM,81.0,73.0,77,30.00,10.0,ENE,3.5,-,N/A,,Mostly Cloudy,70,2013-08-02 13:53:00
10:07 AM,80.6,73.4,79,30.01,10.0,Calm,Calm,-,N/A,,Scattered Clouds,0,2013-08-02 14:07:00
10:53 AM,82.0,72.0,71,29.99,10.0,Calm,Calm,-,N/A,,Mostly Cloudy,0,2013-08-02 14:53:00
11:06 AM,84.2,71.6,66,30.01,10.0,Calm,Calm,-,N/A,,Mostly Cloudy,0,2013-08-02 15:06:00
11:42 AM,84.2,71.6,66,30.00,10.0,East,4.6,-,N/A,,Overcast,100,2013-08-02 15:42:00
11:53 AM,84.9,72.0,65,29.99,10.0,Variable,5.8,-,N/A,,Overcast,0,2013-08-02 15:53:00
12:53 PM,86.0,72.0,63,29.99,10.0,South,8.1,-,N/A,,Mostly Cloudy,170,2013-08-02 16:53:00
1:02 PM,84.2,73.4,70,30.00,10.0,South,8.1,-,N/A,,Overcast,180,2013-08-02 17:02:00
1:26 PM,87.8,73.4,62,30.00,10.0,SW,9.2,-,N/A,,Mostly Cloudy,220,2013-08-02 17:26:00
1:53 PM,90.0,72.0,55,29.97,10.0,SSW,11.5,16.1,N/A,,Mostly Cloudy,210,2013-08-02 17:53:00
2:53 PM,88.0,72.0,59,29.96,10.0,SSW,9.2,-,N/A,,Mostly Cloudy,200,2013-08-02 18:53:00
3:53 PM,82.9,75.9,79,29.96,10.0,NE,3.5,-,0.00,,Overcast,40,2013-08-02 19:53:00
4:53 PM,88.0,73.0,61,29.96,10.0,West,10.4,-,N/A,,Partly Cloudy,260,2013-08-02 20:53:00
5:53 PM,88.0,73.0,61,29.95,10.0,SW,8.1,-,N/A,,Scattered Clouds,220,2013-08-02 21:53:00
6:53 PM,87.1,73.9,65,29.95,10.0,SW,6.9,-,N/A,,Clear,220,2013-08-02 22:53:00
7:53 PM,84.0,73.9,72,29.96,9.0,SSW,4.6,-,N/A,,Partly Cloudy,200,2013-08-02 23:53:00
8:53 PM,82.9,73.9,74,29.98,10.0,SSW,4.6,-,N/A,,Overcast,210,2013-08-03 00:53:00
9:53 PM,81.0,73.9,79,29.99,10.0,South,4.6,-,N/A,,Mostly Cloudy,170,2013-08-03 01:53:00
10:28 PM,80.6,75.2,84,30.03,9.0,East,3.5,-,N/A,Thunderstorm,Mostly Cloudy,80,2013-08-03 02:28:00
10:37 PM,80.6,75.2,84,30.03,8.0,ESE,3.5,-,N/A,,Overcast,120,2013-08-03 02:37:00
10:53 PM,80.1,75.0,85,30.01,9.0,SW,5.8,-,N/A,,Overcast,230,2013-08-03 02:53:00
11:21 PM,80.6,75.2,84,30.03,10.0,Calm,Calm,-,N/A,Thunderstorm,Overcast,0,2013-08-03 03:21:00
11:36 PM,80.6,75.2,84,30.03,10.0,South,4.6,-,N/A,Thunderstorm,Overcast,190,2013-08-03 03:36:00
11:53 PM,79.0,75.0,88,30.02,10.0,Variable,6.9,-,N/A,Thunderstorm,Overcast,0,2013-08-03 03:53:00